Home   Weather   Selkirk   Past weeks

Flag for Canada Past Weather in Selkirk, Manitoba, Canada — Yesterday and Last 2 Weeks

Now
79 °F

Warm.


Feels Like: 80 °F
Forecast: N/A
Wind: 5 mph from Southwest

Location: Winnipeg The Forks Man

Current Time: Jul 23, 2017 at 5:51:48 pm

Latest Report: Jul 23, 2017 at 5:00 pm


Visibility: N/A

Pressure: 29.95 "Hg

Humidity: 47%

Dew Point: 57 °F

Location of SelkirkLocation

Past Weather in Selkirk — Graph

°F

Selkirk Temperature Yesterday

Maximum temperature yesterday: 70 °F (at 11:00 am)
Minimum temperature yesterday: 62 °F (at 5:00 am)
Average temperature yesterday: 66 °F

High & Low Weather Summary for the Past Weeks

 TemperatureHumidityPressure
High82 °F (Jul 10, 5:00 pm)94% (Jul 12, 12:00 am)30.23 "Hg (Jul 12, 12:00 am)
Low54 °F (Jul 13, 6:00 am)29% (Jul 17, 5:00 pm)29.61 "Hg (Jul 17, 5:00 am)
Average69 °F65%29.92 "Hg
* Reported Jul 8 4:00 pm — Jul 23 4:00 pm, Selkirk. Weather by CustomWeather, © 2017

Note: Actual official high and low records may vary slightly from our data, if they occured in-between our weather recording intervals... More about our weather records

Advertising

Selkirk Weather History for the Previous 24 Hours

Scroll right to see more
 ConditionsComfort  
Time TempWeatherWind HumidityBarometerVisibility
4:00 pm
Sun, Jul 23
77 °FMild.2 mph52%29.97 "HgN/A
3:00 pm76 °FMild.2 mph57%29.98 "HgN/A
2:00 pm76 °FMild.2 mph53%29.98 "HgN/A
1:00 pm74 °FMild.1 mph57%29.99 "HgN/A
12:00 pm74 °FMild.2 mph61%30.01 "HgN/A
11:00 am71 °FMild.1 mph60%30.01 "HgN/A
10:00 am69 °FMild.1 mph69%30.00 "HgN/A
9:00 am66 °FMild.2 mph73%30.00 "HgN/A
8:00 am63 °FMild.2 mph77%29.99 "HgN/A
7:00 am59 °FCool.2 mph79%29.98 "HgN/A
6:00 am58 °FCool.3 mph83%29.96 "HgN/A
5:00 am59 °FCool.5 mph81%29.95 "HgN/A
4:00 am60 °FCool.5 mph79%29.94 "HgN/A
3:00 am61 °FCool.5 mph80%29.93 "HgN/A
2:00 am60 °FCool.5 mph88%29.93 "HgN/A
1:00 am63 °FMild.6 mph81%29.92 "HgN/A
12:00 am63 °FMild.6 mph84%29.90 "HgN/A
11:00 pm
Sat, Jul 22
64 °FMild.5 mph83%29.89 "HgN/A
10:00 pm65 °FMild.5 mph81%29.87 "HgN/A
9:00 pm66 °FMild.6 mph79%29.85 "HgN/A
8:00 pm67 °FMild.5 mph75%29.84 "HgN/A
7:00 pm66 °FMild.6 mph71%29.83 "HgN/A
6:00 pm66 °FMild.3 mph74%29.82 "HgN/A
5:00 pm67 °FMild.3 mph75%29.81 "HgN/A
Weather by CustomWeather, © 2017

See weather overviewHow to use our weather pages